Regional Weather Roundup
Issued by NWS Newport/Morehead, NC

Home | Current Version | Previous Version | Text Only | Print | Product List | Glossary On
Versions: 1 2 3 4 5 6 7 8 9 10 11 12 13 14 15 16 17 18 19 20 21 22 23 24 25 26 27 28 29 30 31 32 33 34 35 36 37 38 39 40 41 42 43 44 45 46 47 48 49 50
000
ASUS42 KMHX 301922
RWRMHX
WEATHER ROUNDUP FOR EASTERN NORTH CAROLINA
NATIONAL WEATHER SERVICE NEWPORT/MOREHEAD CITY NC
300 PM EDT WED JUL 30 2014

NOTE: "FAIR" INDICATES FEW OR NO CLOUDS BELOW 12,000 FEET
WITH NO SIGNIFICANT WEATHER AND/OR OBSTRUCTIONS TO VISIBILITY

NCZ015>017-031-032-045>047-102-103-302000-
NORTH COAST

CITY           SKY/WX    TMP DP  RH WIND       PRES   REMARKS
EDENTON        SUNNY     81  63  55 SW5       30.06F
ELIZABETH CITY MOSUNNY   80  60  50 N3        30.06F
KITTY HAWK     CLEAR     78  58  50 NE7       30.06S
MANTEO         NOT AVBL

$$

NCZ045>047-081-094-103-104-302000-
CENTRAL COAST

CITY           SKY/WX    TMP DP  RH WIND       PRES   REMARKS
FRISCO         SUNNY     83  62  49 NE8       30.06S
SWANQUARTER      N/A     81 N/A N/A E5G12     30.00F

$$

NCZ095-097-098-100-101-302000-
SOUTHERN COAST

CITY           SKY/WX    TMP DP  RH WIND       PRES   REMARKS
BEAUFORT       SUNNY     83  62  49 E10       30.05S
CEDAR ISLAND     N/A     81 N/A N/A NE6G14    30.09S
JACKSONVILLE   SUNNY     85  61  44 E6        30.03F
NEWPORT        NOT AVBL
PINEY ISLAND   CLEAR     82  66  58 NE10      30.05F
WILMINGTON     SUNNY     84  65  52 E12       30.04F


$$

NCZ011>013-027>030-043-044-078>080-089-090>093-098-302000-
COASTAL PLAIN

CITY           SKY/WX    TMP DP  RH WIND       PRES   REMARKS
AHOSKIE        SUNNY     78  58  49 CALM      30.07F
CLINTON        PTSUNNY   83  64  53 E5        30.04S
ELIZABETHTOWN  MOSUNNY   84  61  46 CALM      30.03F
GOLDSBORO      SUNNY     83  66  55 VRB5      30.03F
GREENVILLE     CLOUDY    82  61  47 CALM      30.07F
HAVELOCK       SUNNY     82  64  54 NE10      30.06F
KENANSVILLE    PTSUNNY   83  58  42 E3        30.05F
KINSTON        MOSUNNY   82  61  47 E6        30.06F
NEW BERN       SUNNY     85  57  38 CALM      30.06F
RICHLANDS      SUNNY     84  59  42 NE7       30.04F
ROANOKE RAPIDS NOT AVBL
ROCKY MOUNT    MOSUNNY   82  62  50 CALM      30.06F
WASHINGTON     MOSUNNY   81  61  50 CALM      30.06S
WHITEVILLE     NOT AVBL

$$

AMZ130-135-150-152-154-156-158-170-250-252-270-ANZ085-086-088-633-658-670-302000-
MARINE OBSERVATIONS

STATION/POSITION TIME  TEMP    WIND        PRES    WAVE   SWELL
                       AIR SEA DIR/SP/G            HT/PER HT/PER
                 (UTC) (F)     (DEG/KT/KT) (MB)    (FT/S) (FT/S)
CHESAPEAKE LIGHT NOT AVBL
BUOY 44014       1900   74 78  350/ 10/ 14 1017.8    3/ 8   2/ 8
DUCK             1900   74 77   40/  6/  7 1017.5
2E DUCK          1900                        N/A     2/ 8
OREGON INLET     1900   77 77   10/  8/ 12 1018.1
BUOY 44095       1900      78                N/A     3/ 8
20E OREGON INLET NOT AVBL
HATTERAS CG      1900   78 79   40/  9/ 12 1018.2
DIAMOND BUOY     1900          VRB 14/ 16  1017.4    3/ 7   2/ 7
CAPE LOOKOUT     1900   78      50/ 13/ 15 1017.4
BEAUFORT LAB     1900   81 81   80/  9/ 12 1016.9
30 SE NEW RIVER  1900   79 81   50/ 14/ 16 1017.5    3/ 8   2/ 8
5 SE WRIGHTSVILL 1900   77 82   90/ 14/ 16   N/A
BUOY 41002       1815   80 81  220/ 10/ 14 1015.1    4/ 7   3/ 7
BUOY 41004       1900   82 84   70/ 14/ 16 1015.4    3/ 9   2/ 9

$$



USA.gov is the U.S. government's official web portal to all federal, state and local government web resources and services.